FENGYUN 1C DEB

Satellite information

Favourite Embed

Satellite Type and Status

DEBRISIN ORBIT

Key statistics

Satellite FENGYUN 1C DEB at a glance.

Uptime

9715

Days in orbit

Revolutions

≈ 14.1

Per day

Orbit

SSO

Sun Synchronous Orbit

Inclination

99.1

Latest

Satellite identification and parameters

Extended collection of information and parameters for FENGYUN 1C DEB.

Object identification

Identified? True

Debris? True

Object name: FENGYUN 1C DEB

International designator: 1999-025EBS

Object number (NORAD): 36986

Object ID (CCSDS): 36986

Country: PEOPLES REPUBLIC OF CHINA (PRC)

Current information (Y/N): Y

RCS size: SMALL

Orbital parameters

Period: 101.796 minutes

Inclination: 99.1451 deg

SMA: 7221.821 km

Apoapsis: 906.85 km

Periapsis: 780.522 km

RAAN: 53.6683 deg

Eccentricy: 0.00874626

Argument of periapsis: 239.1768 deg

Mean anomaly: 120.0776 deg

Mean motion: 14.14596768 rev/day

Mean motion (dot): 0.00005162 rev/day2

B* drag term: 0.0026122085 1/REarth

Two-line elements (TLE)

Creation date: Dec. 14, 2025, 3:07 a.m.

Reference frame: TEME

Reference center: EARTH

Epoch: Dec. 13, 2025, 3:26 p.m. UTC

TLE line 0: 0 FENGYUN 1C DEB

TLE line 1: 1 36986U 99025EBS 25347.64358259 .00005162 00000-0 26122-2 0 9999

TLE line 2: 2 36986 99.1451 53.6683 0087463 239.1768 120.0776 14.14596768817570

Live tracking on map

Real-time ground track for satellite FENGYUN 1C DEB.

In-orbit conjunctions

A list of the most updated potential collisions computed for object FENGYUN 1C DEB.

Target Orbit TCA Probability of collision Miss distance Type
NOAA 16 DEB SSO 2025-07-25 05:40:55 0.0001034335 60.0 (m) DEBRIS
COSMOS 2251 DEB LEO 2024-11-13 03:17:44 0.000152736 745.0 (m) DEBRIS
COSMOS 1275 DEB LEO 2024-11-05 17:40:28 0.0001616587 194.0 (m) DEBRIS

Associated space launch

Chinese polar orbiting meteorological satellite

FENGYUN 1C DEB was lifted into orbit during the mission ‘Long March 4B | Feng Yun 1C’, on board a Long March 4B space rocket.

The launch took place on May 10, 1999, 1:33 a.m. from Launch Complex 7.

For more information about the launch, click the button.

Launch to space Long March 4B | Feng Yun 1C
Long March 4B | Feng Yun 1C

Agency: N/A

Status: Launch Successful

Launch date: May 10, 1999, 1:33 a.m. UTC

Rocket: Long March 4B

Launch pad: Launch Complex 7

Location: Taiyuan Satellite Launch Center, People's Republic of China

...

Latest news about this satellite

There are no fresh news available about this satellite. Check back as we update our databases every day.


Newsletter sign-up

Weekly statistics, charts and insights to help you stay on top of the space industry.